EHI
13 11 10 9 7 5 4 3 4 4 4 4 4 4 3 1 0 0 1 1 1 2 3 3 2 1 0 0 0 1 2 3 4 3 2 2 2 1 0 0 0 1 1
14 13 11 9 7 5 4 3 4 5 6 6 6 5 4 2 1 1 1 1 1 2 2 2 2 1 0 0 0 0 1 3 4 4 3 3 3 2 1 0 0 1 1
14 14 12 10 8 6 4 4 5 6 6 7 7 6 6 5 5 4 2 1 1 1 1 1 1 2 1 0 0 0 1 3 5 5 5 5 4 3 2 1 2 2 1
12 12 12 12 11 8 5 4 4 4 6 7 8 7 7 7 8 6 4 2 1 1 0 0 1 2 1 0 0 0 1 4 5 6 5 4 3 3 4 4 4 3 1
11 12 13 14 15 13 9 6 5 4 5 6 6 6 6 7 7 6 4 3 1 0 0 0 0 1 1 0 0 0 2 4 5 4 4 3 3 4 5 6 6 3 2
12 12 13 15 17 17 13 10 8 6 5 5 5 5 6 6 6 4 3 2 1 0 0 0 0 1 1 0 0 0 1 3 3 3 3 3 3 4 5 6 6 5 4
13 13 14 16 18 19 17 14 12 10 9 8 7 6 6 6 5 4 2 1 1 0 0 0 0 0 1 1 1 0 1 1 2 3 3 3 3 4 5 6 7 7 7
13 14 16 17 19 20 18 16 14 12 12 12 10 7 7 6 4 2 1 0 0 0 0 0 0 0 1 2 2 1 1 2 2 2 2 2 2 3 4 5 6 7 7
15 15 16 17 18 19 18 16 15 15 15 13 10 9 8 5 2 1 0 0 0 0 0 1 1 1 0 1 1 2 2 2 2 1 1 1 1 1 2 3 4 5 5
14 15 15 15 15 16 16 17 17 18 16 13 10 10 9 5 1 0 0 0 0 0 0 1 2 1 0 0 1 2 2 2 2 2 1 1 1 1 2 3 4 5 5
10 12 15 16 16 15 16 18 19 20 18 14 11 11 10 7 3 1 1 0 0 0 1 2 3 2 1 0 1 2 2 2 3 3 3 2 2 3 3 3 3 3 3
8 11 15 17 17 17 18 19 20 21 19 15 13 12 10 7 4 2 1 0 0 0 1 2 2 2 1 0 0 1 1 1 3 3 3 3 3 3 3 2 1 1 1
9 10 13 15 16 16 17 19 19 20 19 16 13 10 8 6 4 2 1 0 0 0 1 1 1 1 1 0 0 1 1 2 3 3 3 3 3 2 2 1 0 0 0
9 9 11 13 13 13 14 18 19 18 18 16 14 10 8 7 5 3 2 1 0 0 0 0 0 0 1 1 1 2 2 2 3 3 3 3 2 1 0 0 0 0 0
6 7 9 11 12 13 14 17 16 14 14 14 14 12 10 9 7 5 3 2 0 0 0 0 0 0 1 2 2 2 2 1 1 2 2 2 1 0 0 0 0 0 0
6 7 8 10 12 13 15 16 13 11 9 8 9 10 9 8 6 3 1 1 0 0 1 1 1 1 1 1 1 1 1 0 0 1 1 1 0 0 0 0 0 0 0
7 8 9 10 11 12 15 14 12 10 7 5 4 3 3 3 2 1 0 0 0 0 1 2 3 2 2 1 0 0 0 0 0 0 0 0 0 0 0 0 0 0 0
7 7 9 11 11 12 13 12 12 11 10 7 4 1 0 0 0 0 0 0 0 0 1 2 3 3 3 1 0 0 0 0 0 0 0 0 0 0 0 0 0 0 0
6 7 8 9 11 12 12 11 11 11 10 9 6 3 1 0 0 0 0 0 1 0 0 1 1 2 2 1 0 0 0 0 0 0 0 0 0 0 0 0 0 0 0
6 6 7 7 8 10 12 11 10 10 10 9 7 5 2 0 0 0 0 0 0 0 0 0 0 1 1 0 0 0 0 0 0 0 0 0 0 0 0 0 0 0 0
6 6 6 6 7 8 9 10 10 10 10 9 8 5 2 1 1 1 0 0 0 0 0 0 0 0 0 0 0 0 0 0 0 0 0 0 0 0 0 0 0 0 0
4 4 5 6 6 6 6 7 8 9 9 9 8 6 2 0 1 1 1 1 1 1 0 0 0 0 0 0 0 0 0 0 0 0 0 0 0 0 0 0 0 0 0
3 3 4 4 4 4 4 5 6 7 8 9 9 6 3 1 1 1 2 2 3 2 1 1 0 0 0 0 0 0 0 0 0 0 0 0 0 0 0 0 0 0 0
3 3 3 3 3 3 3 3 4 5 6 8 8 6 4 3 2 2 2 3 3 2 2 2 1 0 0 0 0 0 0 0 0 0 0 0 0 0 0 0 0 0 0
3 3 4 3 3 3 3 3 3 3 3 4 5 5 4 3 1 1 1 1 1 1 2 2 1 0 0 0 0 0 0 0 0 0 0 0 0 0 0 0 0 0 0
3 4 4 4 3 3 3 3 3 2 1 1 2 4 4 2 1 0 0 0 0 0 1 1 0 0 0 0 0 0 0 0 0 0 0 0 0 0 0 0 0 0 0
Wind_Speed
5 5 4 3 3 3 3 3 3 2 2 1 1 1 1 1 0 1 1 0 0 0 1 0 1 1 1 1 1 1 1 2 2 2 2 2 2 2 2 2 2 2 2
5 5 4 3 3 3 3 3 2 2 2 2 2 1 1 1 1 1 1 1 1 1 1 1 2 1 1 1 1 1 1 2 2 3 2 2 2 2 2 2 2 2 2
5 5 4 4 4 4 3 3 3 2 2 2 2 2 2 2 2 2 2 1 2 2 2 2 2 1 2 2 1 1 2 1 2 2 2 1 1 1 2 2 2 2 2
4 4 5 5 5 4 3 3 3 3 3 3 3 3 3 3 2 2 2 2 2 2 2 3 3 3 3 3 2 2 1 1 1 1 2 2 1 2 1 2 2 2 2
4 4 5 5 4 3 3 3 3 3 3 3 3 3 3 3 3 3 3 3 2 2 2 3 3 3 4 3 2 2 2 1 1 1 2 2 2 1 2 2 2 2 2
4 5 4 4 4 4 4 3 3 3 3 2 3 3 3 3 3 4 3 2 2 2 3 3 3 3 3 3 3 3 3 3 3 2 2 2 3 2 2 2 2 2 2
4 4 3 3 4 4 4 3 4 4 3 2 3 3 3 3 3 3 3 2 2 2 3 3 3 2 2 2 2 2 3 3 4 3 3 4 4 3 2 2 2 2 2
3 3 3 3 3 3 3 4 4 3 3 3 3 3 3 3 3 3 3 2 2 2 3 3 3 3 3 2 2 2 2 3 3 3 4 4 4 3 3 2 2 2 2
2 2 2 3 3 3 4 4 4 3 3 3 3 3 3 3 2 2 2 1 1 3 3 3 3 3 4 2 2 2 3 3 2 2 2 3 3 2 2 1 1 1 2
2 2 2 2 3 4 4 4 3 3 4 3 2 2 3 3 3 3 3 1 2 2 3 3 4 4 4 2 2 2 3 4 3 2 2 2 2 1 1 2 2 2 2
1 1 1 1 2 3 3 3 3 3 2 2 2 2 2 3 3 3 3 2 3 3 3 3 3 4 5 4 3 3 5 4 2 2 2 1 1 1 1 1 2 2 2
0 0 1 1 1 1 1 2 2 3 3 2 2 2 2 2 3 3 4 4 3 3 3 3 3 3 4 3 2 3 4 3 1 1 1 1 1 1 1 1 2 2 2
1 0 0 0 0 0 1 2 1 2 2 2 2 3 3 2 2 4 4 5 5 3 3 3 3 3 3 2 3 4 3 1 1 2 2 2 2 2 1 1 1 1 1
1 1 0 0 0 1 1 1 2 2 3 3 3 3 3 2 2 2 2 3 3 3 2 2 3 3 2 2 2 2 1 1 2 2 2 2 1 1 1 1 1 1 1
1 1 1 1 1 1 1 2 3 3 4 4 4 3 3 4 4 4 3 3 3 2 1 1 0 1 1 1 1 1 1 1 2 2 2 2 1 1 1 1 1 1 1
1 1 1 1 1 1 1 1 1 2 3 5 5 4 4 5 4 4 5 5 4 3 2 1 2 2 2 2 2 2 2 2 2 2 2 2 2 2 2 1 1 1 2
2 2 2 1 1 2 2 2 2 2 2 4 5 5 4 4 3 4 4 4 3 4 2 2 3 3 3 3 3 3 3 3 2 2 2 2 2 2 2 2 2 2 2
2 2 2 2 2 2 2 2 2 2 2 2 3 4 4 4 3 3 3 2 1 2 3 3 3 3 3 3 3 3 3 2 2 2 2 2 2 2 2 2 2 2 3
1 1 1 1 2 2 2 2 2 2 2 2 2 2 2 2 2 2 4 3 3 3 3 4 4 4 4 4 3 3 3 3 3 3 3 3 3 2 2 2 2 3 3
1 2 1 1 1 2 2 2 2 2 2 2 2 2 1 0 1 1 2 3 3 3 4 4 4 4 4 4 4 4 3 3 3 3 3 2 2 2 3 3 3 3 3
1 2 2 1 2 2 2 3 3 3 3 3 3 3 3 3 3 3 3 3 4 4 4 4 4 4 4 3 3 4 4 4 4 3 3 3 3 3 2 2 2 3 2
2 2 2 2 2 2 3 3 3 3 3 4 3 2 3 3 3 3 3 4 4 4 4 4 4 3 4 4 4 3 4 4 3 3 3 3 2 2 2 2 2 2 2
2 2 2 2 2 3 3 3 3 3 3 3 3 2 2 3 3 3 4 3 3 3 3 3 3 3 3 3 3 4 4 4 4 4 3 3 2 2 2 2 2 2 2
3 3 3 3 3 3 3 3 3 3 3 3 3 3 3 3 3 4 3 3 2 2 2 2 3 4 4 3 2 3 3 3 3 3 4 3 3 2 2 2 2 2 2
3 3 3 3 3 3 3 3 3 3 3 3 3 3 3 3 3 3 3 2 2 2 3 2 2 2 3 3 2 1 1 2 2 2 3 3 3 3 3 3 2 1 1
3 3 3 3 3 3 3 3 3 3 4 4 3 3 3 3 3 3 2 2 2 2 2 2 2 2 2 2 2 1 1 1 1 1 2 2 3 2 2 2 2 2 2
Wind_Direction
181 182 184 187 185 179 192 209 209 204 198 201 220 234 227 233 220 152 205 140 139 333 330 329 309 298 285 272 219 198 202 205 240 277 275 295 302 310 324 324 316 316 318
179 174 184 187 185 193 208 213 201 202 206 206 201 214 231 242 238 202 228 214 215 244 265 278 297 299 286 259 230 221 226 220 226 268 284 294 293 296 303 315 324 329 322
169 172 180 189 195 206 214 209 200 202 207 211 206 218 231 234 228 222 227 235 230 240 248 252 264 258 269 261 248 251 252 246 234 247 276 285 291 311 316 321 323 322 318
170 179 193 203 207 211 212 206 205 204 204 217 221 225 230 229 222 225 227 231 237 250 256 252 251 242 246 247 246 245 246 260 266 260 274 286 289 305 312 312 320 332 326
175 192 213 210 202 201 206 210 207 208 216 216 218 231 234 227 231 232 227 229 235 254 270 270 264 256 252 247 244 231 219 226 239 262 279 287 291 304 295 291 290 308 319
188 209 214 200 194 199 206 206 202 210 217 210 220 230 239 247 244 232 225 229 233 242 264 279 280 277 280 272 261 237 213 215 227 235 256 267 273 275 278 278 290 306 311
191 205 208 199 202 207 204 195 203 208 205 212 224 228 244 253 245 238 228 227 238 248 256 268 281 291 282 274 284 269 248 237 222 218 237 253 258 252 252 274 267 265 276
186 192 193 192 205 205 196 204 209 203 201 211 222 229 240 258 248 236 231 229 249 261 262 256 256 272 273 267 273 284 281 271 247 233 235 250 258 249 231 236 244 272 288
205 222 204 195 203 201 205 215 212 202 207 211 214 221 230 260 253 227 208 223 258 271 269 262 255 259 272 266 254 274 289 290 276 256 258 270 274 255 217 180 199 239 290
230 235 230 208 202 210 214 218 213 203 213 212 221 225 226 245 248 220 190 196 243 270 278 271 262 263 274 261 230 245 270 279 290 296 298 307 289 252 194 201 210 228 273
233 227 223 220 214 213 213 215 202 199 198 200 216 237 239 245 248 235 213 204 229 253 264 270 270 268 265 258 237 237 254 263 268 267 282 301 306 288 278 241 227 225 238
134 139 232 245 247 221 201 217 198 188 196 210 221 252 257 253 245 244 236 235 235 237 253 261 266 264 255 250 248 266 266 258 243 249 265 277 284 287 279 256 237 242 250
87 34 300 40 338 221 206 213 208 199 208 222 226 245 263 258 252 246 244 245 242 236 252 256 260 258 251 254 261 263 255 249 238 249 257 264 267 269 271 263 260 270 282
113 295 296 226 280 286 253 219 204 216 219 219 226 238 255 259 259 253 243 242 242 249 266 274 267 265 268 280 300 285 258 247 234 244 255 269 280 272 272 280 278 294 311
184 247 268 260 237 244 246 235 222 223 218 218 228 226 228 246 247 232 218 228 224 225 216 272 308 311 289 295 296 291 275 258 255 258 254 263 271 277 284 288 262 262 268
207 253 251 251 252 245 255 292 261 235 241 228 225 226 235 239 245 227 231 234 222 187 166 221 246 250 251 254 255 259 255 252 257 257 253 251 254 262 274 285 277 261 264
207 243 255 252 252 251 243 237 267 290 266 246 240 235 241 255 250 238 236 229 210 169 191 229 237 242 245 246 245 244 249 250 244 243 244 245 244 248 251 254 256 261 262
222 235 239 244 246 248 251 246 239 251 278 287 273 258 261 254 240 231 207 158 190 200 228 238 242 243 244 244 243 245 249 248 241 243 244 243 240 240 248 250 250 256 258
234 239 234 237 240 239 239 243 241 245 258 273 298 294 272 265 243 214 174 197 220 231 237 242 245 246 245 242 242 242 242 242 240 238 241 240 242 243 250 251 251 248 248
243 247 236 236 254 248 235 233 238 241 254 257 261 269 279 239 261 243 213 231 235 238 237 240 243 242 240 236 235 235 238 239 235 237 242 244 242 241 246 253 250 241 241
224 237 232 237 246 251 237 236 238 238 242 252 257 248 215 225 239 243 238 239 241 243 243 243 242 238 236 234 234 233 232 235 234 233 233 237 238 236 241 243 242 241 241
212 220 222 229 237 247 250 241 236 240 246 254 266 264 233 237 245 246 247 249 248 246 244 242 244 245 242 238 235 235 234 235 234 234 236 238 239 240 235 231 232 231 232
211 218 224 233 233 240 247 244 238 240 248 256 259 260 246 244 247 250 254 257 257 255 248 241 243 251 254 248 237 230 230 230 229 223 221 225 231 238 233 223 223 227 233
215 220 227 233 237 238 242 245 240 240 247 255 259 256 251 248 251 255 257 255 253 257 259 250 245 250 258 259 250 241 238 237 227 219 215 215 224 227 221 220 227 227 224
214 219 223 225 229 237 241 243 240 244 251 253 253 254 254 249 249 255 259 253 246 251 258 255 253 250 249 249 254 260 254 233 225 218 208 206 212 214 207 206 209 208 199
216 222 224 223 224 228 233 237 239 244 248 249 249 247 249 247 246 249 247 252 251 245 246 248 255 254 252 245 259 289 260 233 223 210 198 194 196 195 186 183 187 183 169